INTELSAT 23 (IS-23)

Last updated on Sun Dec 21 2025 00:02:54 GMT+0000 (Coordinated Universal Time)

1 38867U 12057A 25354.46941434 -.00000261 00000+0 00000+0 0 9999 2 38867 0.0148 49.0714 0000609 249.8393 266.4118 1.00269534 48162
UTC large
Height (km)
Speed (km/s)
/
Latitude / Longitude
Inclination (degrees)
Orbital Period (minutes)
Azimuth
Elevation
Range (km)
Doppler Factor

Next 0 passes for location: London (51.5072 / 0.1276)

Sorry there are no passes over London.